Weather History for KBJJ - April, 2014

Change the Weather History Date:

Monday, April 7, 2014

  Actual Average Record
Temperature  
Mean Temperature 46 °F -  
Max Temperature 54 °F 55 °F 79 °F (2001)
Min Temperature 39 °F 34 °F 21 °F (2007)
Degree Days  
Heating Degree Days 20    
Moisture  
Dew Point 41 °F    
Average Humidity 84    
Maximum Humidity 100    
Minimum Humidity 53    
Precipitation  
Precipitation 0.99 in - - ()
Sea Level Pressure  
Sea Level Pressure 29.57 in    
Wind  
Wind Speed 7 mph (East)    
Max Wind Speed 18 mph    
Max Gust Speed 22 mph    
Visibility 5 miles    
Events Rain    
Averages and records for this station are not official NWS values.
T = Trace of Precipitation, MM = Missing Value Source: NWS Daily Summary

Daily Weather History Graph

Daily Weather History Graph

Search for Another Location

Airport or City:

Trip Planner

Search our weather history database for the weather conditions in past years. The results will help you decide how hot, cold, wet, or windy it might be!

Date:

Astronomy

Apr. 07, 2014 Rise Set
Actual Time 7:01 AM EDT 7:58 PM EDT
Civil Twilight 6:33 AM EDT 8:26 PM EDT
Nautical Twilight 6:00 AM EDT 9:00 PM EDT
Astronomical Twilight 5:25 AM EDT 9:34 PM EDT
Moon 12:54 PM EDT (4/7) 2:36 AM EDT (4/7)
Length of Visible Light 13h 53m
Length of Day
12h 57m
First Quarter, 53% of the Moon is Illuminated
Apr 7
First Quarter
Apr 15
Full
Apr 22
Last Quarter
Apr 29
New
May 6
First Quarter

Hourly Weather History & Observations

Time (EDT) Temp. Windchill Dew Point Humidity Pressure Visibility Wind Dir Wind Speed Gust Speed Precip Events Conditions
1:56 AM 42.1 °F 40.2 °F 26.1 °F 53% 29.98 in 10.0 mi ENE 3.5 mph - N/A   Clear
2:56 AM 41.0 °F 38.0 °F 26.1 °F 55% 29.96 in 10.0 mi East 4.6 mph - N/A   Clear
3:56 AM 39.9 °F 36.7 °F 28.0 °F 63% 29.92 in 10.0 mi East 4.6 mph - N/A   Clear
4:56 AM 39.9 °F 37.8 °F 28.9 °F 65% 29.89 in 10.0 mi ESE 3.5 mph - N/A   Clear
5:56 AM 39.0 °F - 30.0 °F 70% 29.88 in 10.0 mi Calm Calm - N/A   Clear
6:56 AM 39.9 °F 36.7 °F 32.0 °F 73% 29.88 in 10.0 mi SE 4.6 mph - 0.00 in Rain Light Rain
7:56 AM 43.0 °F 40.3 °F 30.9 °F 62% 29.88 in 10.0 mi SE 4.6 mph - 0.00 in   Mostly Cloudy
8:56 AM 45.0 °F 41.8 °F 32.0 °F 60% 29.86 in 10.0 mi ESE 5.8 mph - N/A   Overcast
9:56 AM 48.0 °F - 34.0 °F 58% 29.82 in 10.0 mi SE 9.2 mph - N/A   Overcast
10:56 AM 50.0 °F - 34.0 °F 54% 29.81 in 10.0 mi ESE 9.2 mph - N/A   Overcast
12:56 PM 52.0 °F - 39.0 °F 61% 29.76 in 9.0 mi ESE 9.2 mph - 0.00 in Rain Light Rain
1:56 PM 48.9 °F - 42.1 °F 77% 29.69 in 10.0 mi East 11.5 mph - 0.03 in Rain Light Rain
2:30 PM 46.9 °F - 42.1 °F 83% 29.66 in 2.0 mi East 9.2 mph - 0.06 in Rain Heavy Rain
2:56 PM 46.9 °F - 43.0 °F 86% 29.65 in 2.5 mi East 16.1 mph - 0.13 in Rain Rain
3:04 PM 46.0 °F 39.3 °F 43.0 °F 89% 29.62 in 4.0 mi East 16.1 mph - 0.00 in Rain Light Rain
3:20 PM 46.0 °F 38.8 °F 43.0 °F 89% 29.60 in 6.0 mi East 18.4 mph - 0.00 in Rain Light Rain
3:31 PM 46.9 °F - 44.1 °F 90% 29.58 in 6.0 mi East 16.1 mph - 0.00 in   Overcast
3:56 PM 46.0 °F 39.3 °F 43.0 °F 89% 29.58 in 7.0 mi East 16.1 mph - 0.00 in   Overcast
4:19 PM 46.0 °F 39.6 °F 43.0 °F 89% 29.55 in 2.5 mi ESE 15.0 mph 21.9 mph 0.06 in Rain Rain
4:28 PM 46.0 °F 40.2 °F 43.0 °F 89% 29.55 in 4.0 mi ESE 12.7 mph - 0.07 in Rain Light Rain
4:56 PM 46.9 °F - 45.0 °F 93% 29.54 in 3.0 mi ESE 15.0 mph - 0.11 in Rain Light Rain
5:56 PM 48.0 °F - 45.0 °F 89% 29.49 in 10.0 mi East 12.7 mph - 0.03 in   Overcast
6:48 PM 46.9 °F - 44.1 °F 90% 29.45 in 2.0 mi ESE 12.7 mph - 0.05 in Rain Rain
6:56 PM 46.9 °F - 45.0 °F 93% 29.46 in 4.0 mi East 9.2 mph - 0.05 in Rain Light Rain
7:24 PM 46.0 °F 41.0 °F 44.1 °F 93% 29.43 in 3.0 mi East 10.4 mph - 0.01 in Rain Light Rain
7:29 PM 46.0 °F 41.4 °F 44.1 °F 93% 29.43 in 2.5 mi East 9.2 mph - 0.02 in Rain Light Rain
7:43 PM 46.0 °F 42.5 °F 44.1 °F 93% 29.44 in 4.0 mi SE 6.9 mph - 0.04 in Rain Light Rain
7:47 PM 46.0 °F 43.1 °F 44.1 °F 93% 29.43 in 1.8 mi East 5.8 mph - 0.09 in Rain Heavy Rain
7:56 PM 46.0 °F 41.9 °F 44.1 °F 93% 29.43 in 1.5 mi ESE 8.1 mph - 0.12 in Rain Rain
8:05 PM 46.0 °F 41.0 °F 45.0 °F 96% 29.41 in 2.5 mi ESE 10.4 mph - 0.04 in Rain Rain
8:22 PM 46.0 °F 43.9 °F 45.0 °F 96% 29.41 in 4.0 mi ESE 4.6 mph - 0.07 in Rain Light Rain
8:56 PM 46.9 °F - 45.0 °F 93% 29.41 in 4.0 mi ENE 4.6 mph - 0.08 in   Overcast
9:30 PM 46.9 °F - 46.0 °F 97% 29.38 in 2.5 mi Variable 3.5 mph - 0.01 in   Overcast
9:37 PM 46.9 °F - 46.0 °F 97% 29.38 in 3.0 mi SE 5.8 mph - 0.01 in   Overcast
9:40 PM 48.0 °F - 46.0 °F 93% 29.38 in 2.5 mi Calm Calm - 0.04 in Rain Light Rain
9:51 PM 46.4 °F 45.2 °F 46.4 °F 100% 29.38 in 1.5 mi SE 3.5 mph - 0.15 in Rain Heavy Rain
9:56 PM 46.9 °F - 45.0 °F 93% 29.39 in 1.2 mi Variable 4.6 mph - 0.22 in Rain Heavy Rain
10:07 PM 48.0 °F - 46.0 °F 93% 29.39 in 2.5 mi Calm Calm - 0.02 in Rain Light Rain
10:39 PM 46.9 °F - 45.0 °F 93% 29.40 in 2.5 mi NW 16.1 mph - 0.13 in Rain Rain
10:42 PM 46.0 °F 39.6 °F 44.1 °F 93% 29.41 in 3.0 mi NW 15.0 mph - 0.15 in Rain Rain
10:47 PM 46.0 °F 42.5 °F 44.1 °F 93% 29.39 in 2.5 mi NNW 6.9 mph - 0.20 in Rain Heavy Rain
10:56 PM 46.0 °F 41.4 °F 45.0 °F 96% 29.39 in 3.0 mi North 9.2 mph - 0.22 in Rain Rain
11:22 PM 46.0 °F - 45.0 °F 96% 29.37 in 7.0 mi Calm Calm - 0.00 in   Overcast
11:32 PM 46.0 °F - 43.0 °F 89% 29.37 in 5.0 mi Calm Calm - 0.00 in   Overcast
11:56 PM 45.0 °F - 44.1 °F 97% 29.37 in 3.0 mi Calm Calm - 0.00 in   Overcast